{"data":{"norad_id":39420,"epoch":"2026-05-25T02:28:45.643584Z","epoch_age_seconds":63135,"freshness":"FRESH","line1":"1 39420U 13066E   26145.10330606  .00001155  00000+0  17118-3 0  9993","line2":"2 39420  97.6837  11.2233 0118210  85.9812 275.4899 14.72255434668122","mean_motion":14.72255434,"eccentricity":0.011821,"inclination_deg":97.6837,"raan_deg":11.2233,"arg_perigee_deg":85.9812,"mean_anomaly_deg":275.4899,"bstar":0.00017118,"rev_number":66812,"period_min":97.809114284444,"perigee_km":570.75162634729,"apogee_km":737.00250286268,"semimajor_km":7032.014064605,"source":"CELESTRAK","updated_at":"2026-05-25T13:37:55.400406Z"}}